Weather History for KBIV - May, 2013

Change the Weather History Date:

Friday, May 24, 2013

  Actual Average Record
Temperature  
Mean Temperature 47 °F 61 °F  
Max Temperature 55 °F 71 °F 91 °F (1977)
Min Temperature 39 °F 51 °F 33 °F (1963)
Degree Days  
Heating Degree Days 18 6  
Month to date heating degree days 117 200  
Since 1 July heating degree days 5920 6079  
Cooling Degree Days 0 2  
Month to date cooling degree days 52 22  
Year to date cooling degree days 58 26  
Moisture  
Dew Point 37 °F    
Average Humidity 70    
Maximum Humidity 89    
Minimum Humidity 50    
Precipitation  
Precipitation 0.00 in 0.10 in 0.86 in (1952)
Month to date precipitation 1.57 2.57  
Year to date precipitation 17.41 11.98  
Sea Level Pressure  
Sea Level Pressure 30.36 in    
Wind  
Wind Speed 6 mph (NW)    
Max Wind Speed 14 mph    
Max Gust Speed 18 mph    
Visibility 10 miles    
Events      
T = Trace of Precipitation, MM = Missing Value Source: NWS Daily Summary

Daily Weather History Graph

Daily Weather History Graph

Search for Another Location

Airport or City:

Trip Planner

Search our weather history database for the weather conditions in past years. The results will help you decide how hot, cold, wet, or windy it might be!

Date:

Astronomy

May. 24, 2013 Rise Set
Actual Time 6:13 AM EDT 9:09 PM EDT
Civil Twilight 5:40 AM EDT 9:42 PM EDT
Nautical Twilight 4:57 AM EDT 10:25 PM EDT
Astronomical Twilight 4:08 AM EDT 11:15 PM EDT
Moon 8:50 PM EDT (5/24) 5:46 AM EDT (5/24)
Length of Visible Light 16h 02m
Length of Day
14h 55m
Full, 100% of the Moon is Illuminated
May 24
Full
May 25
Full
May 31
Last Quarter
Jun 8
New
Jun 16
First Quarter

Hourly Weather History & Observations

Time (EDT) Temp. Windchill Dew Point Humidity Pressure Visibility Wind Dir Wind Speed Gust Speed Precip Events Conditions
12:53 AM 43.0 °F 39.5 °F 35.1 °F 74% 30.27 in 10.0 mi NNW 5.8 mph - N/A   Clear
1:53 AM 42.1 °F 38.4 °F 35.1 °F 76% 30.28 in 10.0 mi NNW 5.8 mph - N/A   Clear
2:53 AM 41.0 °F 38.0 °F 33.1 °F 73% 30.28 in 10.0 mi North 4.6 mph - N/A   Clear
3:53 AM 39.9 °F 37.8 °F 33.1 °F 77% 30.30 in 10.0 mi Variable 3.5 mph - N/A   Clear
4:53 AM 39.0 °F 34.8 °F 33.1 °F 79% 30.30 in 10.0 mi NNE 5.8 mph - N/A   Clear
5:53 AM 39.0 °F 34.8 °F 33.1 °F 79% 30.32 in 10.0 mi North 5.8 mph - N/A   Clear
6:53 AM 39.0 °F 34.0 °F 33.1 °F 79% 30.34 in 10.0 mi North 6.9 mph - N/A   Clear
7:53 AM 42.1 °F 36.6 °F 34.0 °F 73% 30.37 in 10.0 mi NNE 9.2 mph - N/A   Clear
8:53 AM 46.0 °F 44.8 °F 35.1 °F 66% 30.38 in 10.0 mi NE 3.5 mph - N/A   Clear
9:53 AM 50.0 °F - 34.0 °F 54% 30.40 in 10.0 mi NNW 8.1 mph - N/A   Clear
10:53 AM 53.1 °F - 35.1 °F 50% 30.41 in 10.0 mi Variable 5.8 mph - N/A   Clear
11:53 AM 52.0 °F - 41.0 °F 66% 30.42 in 10.0 mi WNW 8.1 mph - N/A   Clear
12:53 PM 51.1 °F - 39.0 °F 63% 30.43 in 10.0 mi West 12.7 mph - N/A   Clear
1:53 PM 52.0 °F - 37.9 °F 59% 30.42 in 10.0 mi NW 10.4 mph 16.1 mph N/A   Clear
2:53 PM 53.1 °F - 39.9 °F 61% 30.42 in 10.0 mi NW 6.9 mph - N/A   Clear
3:53 PM 53.1 °F - 39.0 °F 59% 30.41 in 10.0 mi West 8.1 mph - N/A   Clear
4:53 PM 52.0 °F - 39.0 °F 61% 30.40 in 10.0 mi West 9.2 mph - N/A   Clear
5:53 PM 53.1 °F - 39.0 °F 59% 30.38 in 10.0 mi Variable 5.8 mph - N/A   Clear
6:53 PM 54.0 °F - 37.9 °F 55% 30.34 in 10.0 mi Variable 3.5 mph - N/A   Clear
7:53 PM 52.0 °F - 37.9 °F 59% 30.33 in 10.0 mi WNW 4.6 mph - N/A   Clear
8:53 PM 50.0 °F - 39.9 °F 68% 30.32 in 10.0 mi West 5.8 mph - N/A   Clear
9:53 PM 46.9 °F - 41.0 °F 80% 30.36 in 10.0 mi WNW 4.6 mph - N/A   Clear
10:53 PM 45.0 °F 41.8 °F 41.0 °F 86% 30.37 in 10.0 mi West 5.8 mph - N/A   Clear
11:53 PM 45.0 °F 43.5 °F 39.9 °F 82% 30.39 in 10.0 mi West 3.5 mph - N/A   Clear